Time,TemperatureF,DewpointF,PressureIn,WindDirection,WindDirectionDegrees,WindSpeedMPH,WindSpeedGustMPH,Humidity,HourlyPrecipIn,Conditions,Clouds,dailyrainin,SolarRadiationWatts/m^2,SoftwareType,DateUTC
2013-01-20 00:02:00,25.0,20.0,-100.00,WSW,238,4.0,7.0,80,0.00,,,0.00,0.000000,,2013-01-20 07:02:00,
2013-01-20 00:12:00,25.0,20.0,-100.00,WSW,238,4.0,7.0,80,0.00,,,0.00,0.000000,,2013-01-20 07:12:00,
2013-01-20 00:32:00,25.0,20.0,-100.00,SW,233,4.0,8.0,80,0.00,,,0.00,0.000000,,2013-01-20 07:32:00,
2013-01-20 00:42:00,25.0,20.0,-100.00,SW,233,4.0,8.0,80,0.00,,,0.00,0.000000,,2013-01-20 07:42:00,
2013-01-20 00:52:00,25.0,20.0,-100.00,SW,233,4.0,8.0,80,0.00,,,0.00,0.000000,,2013-01-20 07:52:00,
2013-01-20 01:02:00,25.0,20.0,-100.00,SW,233,4.0,8.0,80,0.00,,,0.00,0.000000,,2013-01-20 08:02:00,
2013-01-20 01:12:00,25.0,20.0,-100.00,SW,233,4.0,8.0,80,0.00,,,0.00,0.000000,,2013-01-20 08:12:00,
2013-01-20 01:42:00,26.0,21.0,-100.00,WNW,284,3.0,8.0,80,0.00,,,0.00,0.000000,,2013-01-20 08:42:00,
2013-01-20 01:53:00,26.0,21.0,-100.00,WNW,284,3.0,8.0,80,0.00,,,0.00,0.000000,,2013-01-20 08:53:00,
2013-01-20 02:02:00,26.0,21.0,-100.00,WNW,284,3.0,8.0,80,0.00,,,0.00,0.000000,,2013-01-20 09:02:00,
2013-01-20 02:12:00,26.0,21.0,-100.00,WNW,284,3.0,8.0,80,0.00,,,0.00,0.000000,,2013-01-20 09:12:00,
2013-01-20 02:33:00,28.0,21.0,-100.00,West,275,4.0,10.0,76,0.00,,,0.00,0.000000,,2013-01-20 09:33:00,
2013-01-20 02:42:00,28.0,21.0,-100.00,West,275,4.0,10.0,76,0.00,,,0.00,0.000000,,2013-01-20 09:42:00,
2013-01-20 02:53:00,28.0,21.0,-100.00,West,275,4.0,10.0,76,0.00,,,0.00,0.000000,,2013-01-20 09:53:00,
2013-01-20 03:02:00,28.0,21.0,-100.00,West,275,4.0,10.0,76,0.00,,,0.00,0.000000,,2013-01-20 10:02:00,
2013-01-20 03:12:00,28.0,21.0,-100.00,West,275,4.0,10.0,76,0.00,,,0.00,0.000000,,2013-01-20 10:12:00,
2013-01-20 03:33:00,30.0,20.0,-100.00,West,268,7.0,14.0,67,0.00,,,0.00,0.000000,,2013-01-20 10:33:00,
2013-01-20 03:42:00,30.0,20.0,-100.00,West,268,7.0,14.0,67,0.00,,,0.00,0.000000,,2013-01-20 10:42:00,
2013-01-20 03:52:00,30.0,20.0,-100.00,West,268,7.0,14.0,67,0.00,,,0.00,0.000000,,2013-01-20 10:52:00,
2013-01-20 04:02:00,30.0,20.0,-100.00,West,268,7.0,14.0,67,0.00,,,0.00,0.000000,,2013-01-20 11:02:00,
2013-01-20 04:12:00,30.0,20.0,-100.00,West,268,7.0,14.0,67,0.00,,,0.00,0.000000,,2013-01-20 11:12:00,
2013-01-20 04:33:00,34.0,16.0,-100.00,West,275,10.0,17.0,48,0.00,,,0.00,0.000000,,2013-01-20 11:33:00,
2013-01-20 04:43:00,34.0,16.0,-100.00,West,275,10.0,17.0,48,0.00,,,0.00,0.000000,,2013-01-20 11:43:00,
2013-01-20 04:53:00,34.0,16.0,-100.00,West,275,10.0,17.0,48,0.00,,,0.00,0.000000,,2013-01-20 11:53:00,
2013-01-20 05:03:00,34.0,16.0,-100.00,West,275,10.0,17.0,48,0.00,,,0.00,0.000000,,2013-01-20 12:03:00,
2013-01-20 05:12:00,34.0,16.0,-100.00,West,275,10.0,17.0,48,0.00,,,0.00,0.000000,,2013-01-20 12:12:00,
2013-01-20 05:33:00,35.0,14.0,-100.00,WNW,290,7.0,18.0,41,0.00,,,0.00,0.000000,,2013-01-20 12:33:00,
2013-01-20 05:43:00,35.0,14.0,-100.00,WNW,290,7.0,18.0,41,0.00,,,0.00,0.000000,,2013-01-20 12:43:00,
2013-01-20 05:53:00,35.0,14.0,-100.00,WNW,290,7.0,18.0,41,0.00,,,0.00,0.000000,,2013-01-20 12:53:00,
2013-01-20 06:03:00,35.0,14.0,-100.00,WNW,290,7.0,18.0,41,0.00,,,0.00,0.000000,,2013-01-20 13:03:00,
2013-01-20 06:12:00,35.0,14.0,-100.00,WNW,290,7.0,18.0,41,0.00,,,0.00,0.000000,,2013-01-20 13:12:00,
2013-01-20 06:33:00,25.0,17.0,-100.00,NNE,25,5.0,14.0,70,0.00,,,0.00,0.000000,,2013-01-20 13:33:00,
2013-01-20 06:43:00,25.0,17.0,-100.00,NNE,25,5.0,14.0,70,0.00,,,0.00,0.000000,,2013-01-20 13:43:00,
2013-01-20 06:53:00,25.0,17.0,-100.00,NNE,25,5.0,14.0,70,0.00,,,0.00,0.000000,,2013-01-20 13:53:00,
2013-01-20 07:02:00,25.0,17.0,-100.00,NNE,25,5.0,14.0,70,0.00,,,0.00,0.000000,,2013-01-20 14:02:00,
2013-01-20 07:12:00,25.0,17.0,-100.00,NNE,25,5.0,14.0,70,0.00,,,0.00,0.000000,,2013-01-20 14:12:00,
2013-01-20 07:33:00,15.0,12.0,-100.00,NNE,33,5.0,13.0,86,0.00,,,0.00,0.000000,,2013-01-20 14:33:00,
2013-01-20 07:43:00,15.0,12.0,-100.00,NNE,33,5.0,13.0,86,0.00,,,0.00,0.000000,,2013-01-20 14:43:00,
2013-01-20 07:53:00,15.0,12.0,-100.00,NNE,33,5.0,13.0,86,0.00,,,0.00,0.000000,,2013-01-20 14:53:00,
2013-01-20 08:03:00,15.0,12.0,-100.00,NNE,33,5.0,13.0,86,0.00,,,0.00,0.000000,,2013-01-20 15:03:00,
2013-01-20 08:12:00,15.0,12.0,-100.00,NNE,33,5.0,13.0,86,0.00,,,0.00,0.000000,,2013-01-20 15:12:00,
2013-01-20 08:33:00,16.0,12.0,-100.00,East,98,2.0,11.0,84,0.00,,,0.00,19.000000,,2013-01-20 15:33:00,
2013-01-20 08:43:00,16.0,12.0,-100.00,East,98,2.0,11.0,84,0.00,,,0.00,19.000000,,2013-01-20 15:43:00,
2013-01-20 08:53:00,16.0,12.0,-100.00,East,98,2.0,11.0,84,0.00,,,0.00,19.000000,,2013-01-20 15:53:00,
2013-01-20 09:03:00,16.0,12.0,-100.00,East,98,2.0,11.0,84,0.00,,,0.00,19.000000,,2013-01-20 16:03:00,
2013-01-20 09:12:00,16.0,12.0,-100.00,East,98,2.0,11.0,84,0.00,,,0.00,19.000000,,2013-01-20 16:12:00,
2013-01-20 09:33:00,18.0,13.0,-100.00,SE,145,1.0,6.0,81,0.00,,,0.00,89.000000,,2013-01-20 16:33:00,
2013-01-20 09:43:00,18.0,13.0,-100.00,SE,145,1.0,6.0,81,0.00,,,0.00,89.000000,,2013-01-20 16:43:00,
2013-01-20 09:53:00,18.0,13.0,-100.00,SE,145,1.0,6.0,81,0.00,,,0.00,89.000000,,2013-01-20 16:53:00,
2013-01-20 10:03:00,18.0,13.0,-100.00,SE,145,1.0,6.0,81,0.00,,,0.00,89.000000,,2013-01-20 17:03:00,
2013-01-20 10:12:00,18.0,13.0,-100.00,SE,145,1.0,6.0,81,0.00,,,0.00,89.000000,,2013-01-20 17:12:00,
2013-01-20 10:33:00,18.0,13.0,-100.00,SSE,160,8.0,13.0,80,0.00,,,0.00,167.000000,,2013-01-20 17:33:00,
2013-01-20 10:43:00,18.0,13.0,-100.00,SSE,160,8.0,13.0,80,0.00,,,0.00,167.000000,,2013-01-20 17:43:00,
2013-01-20 10:53:00,18.0,13.0,-100.00,SSE,160,8.0,13.0,80,0.00,,,0.00,167.000000,,2013-01-20 17:53:00,
2013-01-20 11:03:00,18.0,13.0,-100.00,SSE,160,8.0,13.0,80,0.00,,,0.00,167.000000,,2013-01-20 18:03:00,
2013-01-20 11:12:00,18.0,13.0,-100.00,SSE,160,8.0,13.0,80,0.00,,,0.00,167.000000,,2013-01-20 18:12:00,
2013-01-20 11:33:00,20.0,16.0,-100.00,SE,127,7.0,12.0,83,0.00,,,0.00,205.000000,,2013-01-20 18:33:00,
2013-01-20 11:43:00,20.0,16.0,-100.00,SE,127,7.0,12.0,83,0.00,,,0.00,205.000000,,2013-01-20 18:43:00,
2013-01-20 11:53:00,20.0,16.0,-100.00,SE,127,7.0,12.0,83,0.00,,,0.00,205.000000,,2013-01-20 18:53:00,
2013-01-20 12:02:00,20.0,16.0,-100.00,SE,127,7.0,12.0,83,0.00,,,0.00,205.000000,,2013-01-20 19:02:00,
2013-01-20 12:12:00,20.0,16.0,-100.00,SE,127,7.0,12.0,83,0.00,,,0.00,205.000000,,2013-01-20 19:12:00,
2013-01-20 12:33:00,19.0,16.0,-100.00,SSE,154,8.0,12.0,86,0.00,,,-99.99,183.000000,,2013-01-20 19:33:00,
2013-01-20 12:43:00,19.0,16.0,-100.00,SSE,154,8.0,12.0,86,0.00,,,-99.99,183.000000,,2013-01-20 19:43:00,
2013-01-20 12:53:00,19.0,16.0,-100.00,SSE,154,8.0,12.0,86,0.00,,,-99.99,183.000000,,2013-01-20 19:53:00,
2013-01-20 13:03:00,19.0,16.0,-100.00,SSE,154,8.0,12.0,86,0.00,,,-99.99,183.000000,,2013-01-20 20:03:00,
2013-01-20 13:12:00,19.0,16.0,-100.00,SSE,154,8.0,12.0,86,0.00,,,-99.99,183.000000,,2013-01-20 20:12:00,
2013-01-20 13:13:00,19.0,16.0,-100.00,SE,142,6.0,10.0,86,0.00,,,0.00,145.000000,,2013-01-20 20:13:00,
2013-01-20 13:42:00,19.0,16.0,-100.00,SE,142,6.0,10.0,86,0.00,,,0.00,145.000000,,2013-01-20 20:42:00,
2013-01-20 13:53:00,19.0,16.0,-100.00,SE,142,6.0,10.0,86,0.00,,,0.00,145.000000,,2013-01-20 20:53:00,
2013-01-20 14:03:00,19.0,16.0,-100.00,SE,142,6.0,10.0,86,0.00,,,0.00,145.000000,,2013-01-20 21:03:00,
2013-01-20 14:33:00,19.0,14.0,-100.00,ENE,76,3.0,9.0,80,0.00,,,0.00,127.000000,,2013-01-20 21:33:00,
2013-01-20 14:43:00,19.0,14.0,-100.00,ENE,76,3.0,9.0,80,0.00,,,0.00,127.000000,,2013-01-20 21:43:00,
2013-01-20 14:53:00,19.0,14.0,-100.00,ENE,76,3.0,9.0,80,0.00,,,0.00,127.000000,,2013-01-20 21:53:00,
2013-01-20 15:03:00,19.0,14.0,-100.00,ENE,76,3.0,9.0,80,0.00,,,0.00,127.000000,,2013-01-20 22:03:00,
2013-01-20 15:12:00,19.0,14.0,-100.00,ENE,76,3.0,9.0,80,0.00,,,0.00,127.000000,,2013-01-20 22:12:00,
2013-01-20 15:13:00,19.0,14.0,-100.00,East,100,4.0,7.0,79,0.00,,,0.00,87.000000,,2013-01-20 22:13:00,
2013-01-20 15:33:00,19.0,14.0,-100.00,East,100,4.0,7.0,79,0.00,,,0.00,87.000000,,2013-01-20 22:33:00,
2013-01-20 15:43:00,19.0,14.0,-100.00,East,100,4.0,7.0,79,0.00,,,0.00,87.000000,,2013-01-20 22:43:00,
2013-01-20 15:53:00,19.0,14.0,-100.00,East,100,4.0,7.0,79,0.00,,,0.00,87.000000,,2013-01-20 22:53:00,
2013-01-20 16:03:00,19.0,14.0,-100.00,East,100,4.0,7.0,79,0.00,,,0.00,87.000000,,2013-01-20 23:03:00,
2013-01-20 16:13:00,19.0,14.0,-100.00,SE,134,4.0,6.0,81,0.00,,,0.00,40.000000,,2013-01-20 23:13:00,
2013-01-20 16:33:00,19.0,14.0,-100.00,SE,134,4.0,6.0,81,0.00,,,0.00,40.000000,,2013-01-20 23:33:00,
2013-01-20 16:43:00,19.0,14.0,-100.00,SE,134,4.0,6.0,81,0.00,,,0.00,40.000000,,2013-01-20 23:43:00,
2013-01-20 16:53:00,19.0,14.0,-100.00,SE,134,4.0,6.0,81,0.00,,,0.00,40.000000,,2013-01-20 23:53:00,
2013-01-20 17:03:00,19.0,14.0,-100.00,SE,134,4.0,6.0,81,0.00,,,0.00,40.000000,,2013-01-21 00:03:00,
2013-01-20 17:13:00,18.0,14.0,-100.00,SSE,157,5.0,8.0,83,0.00,,,0.00,11.000000,,2013-01-21 00:13:00,
2013-01-20 17:33:00,18.0,14.0,-100.00,SSE,157,5.0,8.0,83,0.00,,,0.00,11.000000,,2013-01-21 00:33:00,
2013-01-20 17:43:00,18.0,14.0,-100.00,SSE,157,5.0,8.0,83,0.00,,,0.00,11.000000,,2013-01-21 00:43:00,
2013-01-20 17:54:00,18.0,14.0,-100.00,SSE,157,5.0,8.0,83,0.00,,,0.00,11.000000,,2013-01-21 00:54:00,
2013-01-20 18:03:00,18.0,14.0,-100.00,SSE,157,5.0,8.0,83,0.00,,,0.00,11.000000,,2013-01-21 01:03:00,
2013-01-20 18:33:00,18.0,15.0,-100.00,ESE,109,4.0,8.0,86,0.00,,,0.00,0.000000,,2013-01-21 01:33:00,
2013-01-20 18:43:00,18.0,15.0,-100.00,ESE,109,4.0,8.0,86,0.00,,,0.00,0.000000,,2013-01-21 01:43:00,
2013-01-20 18:53:00,18.0,15.0,-100.00,ESE,109,4.0,8.0,86,0.00,,,0.00,0.000000,,2013-01-21 01:53:00,
2013-01-20 19:03:00,18.0,15.0,-100.00,ESE,109,4.0,8.0,86,0.00,,,0.00,0.000000,,2013-01-21 02:03:00,
2013-01-20 19:12:00,18.0,15.0,-100.00,ESE,109,4.0,8.0,86,0.00,,,0.00,0.000000,,2013-01-21 02:12:00,
2013-01-20 19:33:00,16.0,12.0,-100.00,SE,135,6.0,8.0,85,0.00,,,0.00,0.000000,,2013-01-21 02:33:00,
2013-01-20 19:43:00,16.0,12.0,-100.00,SE,135,6.0,8.0,85,0.00,,,0.00,0.000000,,2013-01-21 02:43:00,
2013-01-20 19:53:00,16.0,12.0,-100.00,SE,135,6.0,8.0,85,0.00,,,0.00,0.000000,,2013-01-21 02:53:00,
2013-01-20 20:03:00,16.0,12.0,-100.00,SE,135,6.0,8.0,85,0.00,,,0.00,0.000000,,2013-01-21 03:03:00,
2013-01-20 20:12:00,16.0,12.0,-100.00,SE,135,6.0,8.0,85,0.00,,,0.00,0.000000,,2013-01-21 03:12:00,
2013-01-20 20:33:00,14.0,10.0,-100.00,ESE,103,5.0,9.0,83,0.00,,,0.00,0.000000,,2013-01-21 03:33:00,
2013-01-20 20:43:00,14.0,10.0,-100.00,ESE,103,5.0,9.0,83,0.00,,,0.00,0.000000,,2013-01-21 03:43:00,
2013-01-20 20:53:00,14.0,10.0,-100.00,ESE,103,5.0,9.0,83,0.00,,,0.00,0.000000,,2013-01-21 03:53:00,
2013-01-20 21:03:00,14.0,10.0,-100.00,ESE,103,5.0,9.0,83,0.00,,,0.00,0.000000,,2013-01-21 04:03:00,
2013-01-20 21:12:00,14.0,10.0,-100.00,ESE,103,5.0,9.0,83,0.00,,,0.00,0.000000,,2013-01-21 04:12:00,
2013-01-20 21:33:00,11.0,8.0,-100.00,East,94,4.0,10.0,87,0.00,,,0.00,0.000000,,2013-01-21 04:33:00,
2013-01-20 21:43:00,11.0,8.0,-100.00,East,94,4.0,10.0,87,0.00,,,0.00,0.000000,,2013-01-21 04:43:00,
2013-01-20 21:53:00,11.0,8.0,-100.00,East,94,4.0,10.0,87,0.00,,,0.00,0.000000,,2013-01-21 04:53:00,
2013-01-20 22:03:00,11.0,8.0,-100.00,East,94,4.0,10.0,87,0.00,,,0.00,0.000000,,2013-01-21 05:03:00,
2013-01-20 22:12:00,11.0,8.0,-100.00,East,94,4.0,10.0,87,0.00,,,0.00,0.000000,,2013-01-21 05:12:00,
2013-01-20 22:34:00,11.0,8.0,-100.00,SE,125,4.0,6.0,87,0.00,,,0.00,0.000000,,2013-01-21 05:34:00,
2013-01-20 22:43:00,11.0,8.0,-100.00,SE,125,4.0,6.0,87,0.00,,,0.00,0.000000,,2013-01-21 05:43:00,
2013-01-20 22:53:00,11.0,8.0,-100.00,SE,125,4.0,6.0,87,0.00,,,0.00,0.000000,,2013-01-21 05:53:00,
2013-01-20 23:03:00,11.0,8.0,-100.00,SE,125,4.0,6.0,87,0.00,,,0.00,0.000000,,2013-01-21 06:03:00,
2013-01-20 23:12:00,11.0,8.0,-100.00,SE,125,4.0,6.0,87,0.00,,,0.00,0.000000,,2013-01-21 06:12:00,
2013-01-20 23:33:00,10.0,7.0,-100.00,SE,142,4.0,6.0,87,0.00,,,0.00,0.000000,,2013-01-21 06:33:00,
2013-01-20 23:43:00,10.0,7.0,-100.00,SE,142,4.0,6.0,87,0.00,,,0.00,0.000000,,2013-01-21 06:43:00,
2013-01-20 23:53:00,10.0,7.0,-100.00,SE,142,4.0,6.0,87,0.00,,,0.00,0.000000,,2013-01-21 06:53:00,